Terug naar catalogus

GHOST-4

ActiefWetenschapSSO
NORAD 59133·PAYLOAD·🇺🇸 United States

Gelanceerd Mar 4, 2024 vanaf Vandenberg Space Force Base

Loading…

Volgende Passages (komende 24 uur)

TLE

VersSource: Space-Track

Epoch: Sep 14, 2026, 09:26 UTC

1 59133U 24043AM  26257.39365006  .00012252  00000-0  25686-3 0  9990
2 59133  97.5730  45.9673 0006433 251.4943 108.5607 15.45538682141305

Volg GHOST-4 in realtime met AllMySat

Download on the App Store